QPF
0.20 0.23 0.16 0.12 0.12 0.12 0.11 0.15 0.17 0.19 0.20 0.21 0.19 0.14 0.11 0.09 0.07 0.05 0.04 0.03 0.02 0.03 0.04 0.08 0.12 0.14 0.13 0.11 0.07 0.05 0.03 0.02 0.02 0.02 0.03 0.03 0.02 0.02 0.01 0.01 0.01 0.00 0.00
0.25 0.26 0.24 0.19 0.15 0.14 0.13 0.14 0.18 0.22 0.23 0.23 0.19 0.17 0.14 0.15 0.11 0.08 0.07 0.07 0.05 0.04 0.04 0.06 0.11 0.14 0.13 0.13 0.12 0.08 0.05 0.03 0.03 0.02 0.01 0.02 0.03 0.02 0.01 0.01 0.01 0.01 0.00
0.26 0.22 0.19 0.16 0.14 0.15 0.15 0.15 0.18 0.20 0.17 0.17 0.16 0.16 0.15 0.14 0.13 0.12 0.11 0.10 0.09 0.07 0.05 0.06 0.09 0.12 0.14 0.14 0.11 0.11 0.08 0.05 0.03 0.02 0.01 0.01 0.02 0.02 0.02 0.01 0.01 0.01 0.00
0.25 0.22 0.18 0.16 0.18 0.19 0.19 0.20 0.21 0.19 0.16 0.16 0.18 0.21 0.20 0.16 0.14 0.12 0.12 0.11 0.11 0.08 0.08 0.06 0.07 0.09 0.12 0.15 0.13 0.12 0.11 0.08 0.05 0.04 0.02 0.01 0.01 0.01 0.02 0.02 0.01 0.01 0.00
0.22 0.18 0.16 0.16 0.20 0.23 0.23 0.24 0.26 0.20 0.16 0.14 0.14 0.17 0.17 0.15 0.11 0.10 0.08 0.08 0.09 0.08 0.08 0.08 0.07 0.08 0.12 0.16 0.17 0.16 0.16 0.13 0.09 0.07 0.04 0.03 0.02 0.01 0.01 0.02 0.01 0.01 0.01
0.13 0.11 0.11 0.12 0.14 0.16 0.15 0.16 0.19 0.18 0.16 0.15 0.15 0.15 0.15 0.12 0.11 0.09 0.08 0.08 0.06 0.05 0.05 0.07 0.09 0.07 0.07 0.11 0.15 0.18 0.19 0.18 0.14 0.11 0.08 0.05 0.03 0.02 0.01 0.01 0.01 0.01 0.01
0.06 0.08 0.08 0.09 0.09 0.10 0.11 0.12 0.14 0.15 0.17 0.19 0.17 0.15 0.12 0.11 0.09 0.07 0.07 0.07 0.06 0.05 0.06 0.08 0.09 0.08 0.06 0.05 0.07 0.12 0.17 0.17 0.15 0.13 0.11 0.08 0.06 0.04 0.02 0.02 0.02 0.01 0.01
0.06 0.06 0.06 0.07 0.08 0.08 0.08 0.10 0.14 0.17 0.18 0.18 0.18 0.18 0.14 0.10 0.06 0.04 0.05 0.05 0.05 0.06 0.05 0.07 0.09 0.09 0.07 0.06 0.04 0.04 0.09 0.14 0.15 0.12 0.10 0.09 0.07 0.05 0.03 0.02 0.02 0.02 0.01
0.03 0.03 0.04 0.06 0.08 0.08 0.07 0.07 0.08 0.11 0.12 0.13 0.14 0.15 0.13 0.11 0.08 0.06 0.04 0.05 0.06 0.07 0.06 0.06 0.06 0.08 0.07 0.07 0.08 0.04 0.05 0.08 0.11 0.13 0.11 0.10 0.08 0.06 0.04 0.03 0.02 0.01 0.01
0.02 0.03 0.04 0.05 0.06 0.08 0.07 0.05 0.05 0.07 0.07 0.07 0.08 0.08 0.08 0.08 0.09 0.07 0.06 0.06 0.07 0.07 0.07 0.07 0.07 0.08 0.09 0.08 0.08 0.05 0.03 0.04 0.06 0.11 0.13 0.12 0.09 0.06 0.04 0.04 0.04 0.02 0.01
0.01 0.01 0.02 0.04 0.04 0.05 0.06 0.05 0.04 0.04 0.05 0.05 0.05 0.05 0.05 0.05 0.05 0.07 0.07 0.07 0.07 0.07 0.07 0.07 0.07 0.08 0.09 0.10 0.10 0.06 0.04 0.03 0.02 0.05 0.09 0.12 0.11 0.08 0.05 0.05 0.06 0.05 0.03
0.01 0.01 0.01 0.02 0.03 0.03 0.04 0.05 0.04 0.03 0.03 0.04 0.04 0.03 0.03 0.03 0.03 0.06 0.07 0.07 0.07 0.07 0.09 0.09 0.09 0.09 0.10 0.09 0.08 0.06 0.05 0.03 0.02 0.02 0.04 0.07 0.09 0.08 0.07 0.06 0.07 0.08 0.07
0.00 0.01 0.01 0.01 0.01 0.02 0.02 0.03 0.03 0.03 0.03 0.04 0.04 0.03 0.02 0.02 0.02 0.03 0.05 0.06 0.06 0.06 0.07 0.08 0.08 0.10 0.10 0.10 0.09 0.08 0.06 0.05 0.03 0.02 0.02 0.03 0.05 0.05 0.05 0.05 0.06 0.08 0.08
0.00 0.00 0.00 0.01 0.00 0.01 0.01 0.03 0.03 0.03 0.03 0.04 0.03 0.03 0.02 0.01 0.02 0.03 0.03 0.05 0.06 0.05 0.06 0.06 0.05 0.07 0.08 0.11 0.12 0.11 0.08 0.06 0.05 0.04 0.03 0.02 0.03 0.03 0.03 0.03 0.04 0.04 0.05
0.00 0.00 0.00 0.01 0.01 0.01 0.01 0.02 0.03 0.03 0.04 0.03 0.03 0.03 0.03 0.02 0.02 0.02 0.03 0.05 0.07 0.07 0.06 0.06 0.07 0.07 0.09 0.10 0.13 0.12 0.11 0.09 0.07 0.06 0.05 0.03 0.03 0.03 0.02 0.02 0.02 0.02 0.03
0.00 0.00 0.00 0.01 0.01 0.01 0.02 0.02 0.02 0.02 0.03 0.03 0.03 0.03 0.03 0.02 0.02 0.02 0.02 0.04 0.06 0.08 0.08 0.07 0.08 0.08 0.09 0.09 0.11 0.13 0.13 0.11 0.09 0.07 0.06 0.04 0.04 0.03 0.03 0.02 0.02 0.02 0.02
0.00 0.00 0.00 0.01 0.01 0.01 0.01 0.02 0.02 0.02 0.02 0.02 0.03 0.03 0.03 0.03 0.03 0.02 0.02 0.02 0.03 0.05 0.07 0.08 0.09 0.11 0.10 0.12 0.13 0.13 0.14 0.14 0.10 0.09 0.07 0.06 0.05 0.04 0.04 0.04 0.02 0.02 0.02
0.00 0.00 0.00 0.00 0.00 0.01 0.01 0.01 0.01 0.02 0.02 0.02 0.02 0.03 0.03 0.03 0.04 0.03 0.02 0.02 0.03 0.04 0.06 0.07 0.09 0.13 0.14 0.15 0.17 0.17 0.16 0.16 0.13 0.11 0.09 0.06 0.05 0.04 0.05 0.05 0.04 0.03 0.02
0.00 0.00 0.00 0.00 0.00 0.01 0.01 0.01 0.01 0.02 0.02 0.02 0.02 0.02 0.02 0.03 0.04 0.04 0.04 0.03 0.03 0.03 0.06 0.07 0.08 0.12 0.17 0.18 0.19 0.19 0.20 0.19 0.15 0.13 0.12 0.09 0.07 0.05 0.04 0.05 0.05 0.04 0.03
0.00 0.00 0.01 0.01 0.01 0.01 0.00 0.01 0.01 0.01 0.02 0.02 0.02 0.02 0.02 0.03 0.03 0.04 0.05 0.06 0.05 0.05 0.05 0.07 0.09 0.11 0.15 0.20 0.22 0.22 0.20 0.21 0.17 0.12 0.11 0.09 0.07 0.06 0.05 0.04 0.05 0.04 0.03
0.00 0.00 0.00 0.01 0.01 0.01 0.00 0.01 0.01 0.02 0.02 0.02 0.02 0.02 0.02 0.02 0.02 0.03 0.03 0.05 0.07 0.07 0.06 0.07 0.09 0.13 0.15 0.19 0.24 0.25 0.23 0.21 0.20 0.14 0.10 0.08 0.06 0.04 0.03 0.03 0.03 0.04 0.04
0.00 0.00 0.01 0.01 0.01 0.01 0.00 0.00 0.00 0.01 0.02 0.03 0.03 0.04 0.03 0.02 0.01 0.01 0.01 0.02 0.04 0.07 0.07 0.07 0.08 0.11 0.16 0.19 0.23 0.28 0.29 0.24 0.21 0.17 0.12 0.10 0.07 0.04 0.02 0.02 0.02 0.03 0.04
0.00 0.01 0.01 0.01 0.01 0.01 0.00 0.00 0.00 0.01 0.02 0.03 0.04 0.04 0.04 0.03 0.03 0.04 0.04 0.02 0.02 0.03 0.05 0.07 0.08 0.09 0.15 0.20 0.24 0.30 0.31 0.27 0.22 0.17 0.13 0.12 0.11 0.08 0.04 0.03 0.03 0.02 0.03
0.01 0.01 0.01 0.01 0.02 0.01 0.00 0.00 0.00 0.01 0.02 0.03 0.04 0.05 0.06 0.07 0.06 0.07 0.08 0.07 0.05 0.04 0.04 0.05 0.07 0.10 0.14 0.19 0.23 0.28 0.34 0.34 0.29 0.24 0.19 0.14 0.12 0.10 0.07 0.05 0.04 0.03 0.03
0.01 0.01 0.01 0.01 0.01 0.02 0.01 0.00 0.00 0.01 0.03 0.04 0.04 0.05 0.06 0.07 0.06 0.03 0.07 0.10 0.09 0.07 0.05 0.04 0.04 0.08 0.15 0.19 0.22 0.27 0.33 0.40 0.38 0.30 0.25 0.20 0.14 0.11 0.10 0.08 0.07 0.05 0.03
0.00 0.01 0.01 0.01 0.01 0.02 0.01 0.00 0.00 0.02 0.04 0.05 0.05 0.05 0.04 0.04 0.03 0.02 0.07 0.11 0.10 0.09 0.08 0.07 0.05 0.06 0.13 0.17 0.18 0.21 0.27 0.31 0.36 0.35 0.25 0.21 0.17 0.12 0.11 0.10 0.09 0.08 0.05
MSLP
1014.30 1014.31 1014.35 1014.46 1014.64 1014.92 1015.28 1015.66 1016.03 1016.32 1016.47 1016.49 1016.36 1016.14 1015.87 1015.64 1015.51 1015.52 1015.68 1015.98 1016.38 1016.83 1017.26 1017.65 1017.96 1018.21 1018.41 1018.61 1018.82 1019.09 1019.43 1019.82 1020.26 1020.72 1021.18 1021.61 1022.02 1022.39 1022.73 1023.05 1023.35 1023.64 1023.91
1014.40 1014.38 1014.39 1014.46 1014.62 1014.87 1015.19 1015.54 1015.87 1016.13 1016.26 1016.25 1016.10 1015.84 1015.54 1015.27 1015.08 1015.02 1015.13 1015.37 1015.73 1016.15 1016.59 1017.00 1017.36 1017.67 1017.94 1018.19 1018.45 1018.76 1019.11 1019.52 1019.97 1020.44 1020.91 1021.37 1021.80 1022.20 1022.58 1022.92 1023.25 1023.56 1023.85
1014.47 1014.45 1014.44 1014.50 1014.63 1014.84 1015.13 1015.44 1015.73 1015.95 1016.05 1016.01 1015.83 1015.54 1015.20 1014.87 1014.62 1014.49 1014.52 1014.70 1015.00 1015.39 1015.82 1016.25 1016.66 1017.03 1017.37 1017.68 1018.00 1018.34 1018.72 1019.14 1019.59 1020.06 1020.54 1021.01 1021.46 1021.89 1022.29 1022.67 1023.02 1023.35 1023.66
1014.45 1014.43 1014.44 1014.49 1014.61 1014.80 1015.04 1015.32 1015.56 1015.74 1015.80 1015.73 1015.53 1015.21 1014.84 1014.47 1014.16 1013.96 1013.91 1014.01 1014.24 1014.58 1014.99 1015.43 1015.87 1016.29 1016.68 1017.06 1017.43 1017.81 1018.21 1018.63 1019.08 1019.55 1020.03 1020.50 1020.97 1021.43 1021.86 1022.27 1022.66 1023.03 1023.37
1014.29 1014.30 1014.33 1014.39 1014.51 1014.68 1014.90 1015.12 1015.33 1015.46 1015.49 1015.40 1015.18 1014.86 1014.47 1014.07 1013.72 1013.46 1013.33 1013.35 1013.50 1013.78 1014.15 1014.57 1015.01 1015.46 1015.89 1016.31 1016.72 1017.13 1017.54 1017.97 1018.42 1018.89 1019.37 1019.86 1020.35 1020.84 1021.31 1021.77 1022.20 1022.61 1022.99
1014.03 1014.07 1014.13 1014.21 1014.32 1014.48 1014.67 1014.85 1015.01 1015.11 1015.11 1015.00 1014.78 1014.47 1014.09 1013.69 1013.32 1013.02 1012.83 1012.77 1012.85 1013.04 1013.34 1013.71 1014.13 1014.57 1015.01 1015.45 1015.88 1016.30 1016.73 1017.16 1017.62 1018.09 1018.58 1019.09 1019.62 1020.15 1020.67 1021.18 1021.67 1022.13 1022.56
1013.72 1013.79 1013.87 1013.96 1014.08 1014.22 1014.37 1014.51 1014.62 1014.68 1014.66 1014.55 1014.34 1014.06 1013.71 1013.34 1012.98 1012.67 1012.44 1012.31 1012.30 1012.41 1012.61 1012.91 1013.27 1013.67 1014.08 1014.51 1014.94 1015.37 1015.80 1016.24 1016.71 1017.20 1017.71 1018.26 1018.82 1019.40 1019.98 1020.55 1021.10 1021.62 1022.10
1013.45 1013.52 1013.61 1013.71 1013.82 1013.92 1014.03 1014.12 1014.18 1014.20 1014.16 1014.05 1013.88 1013.64 1013.35 1013.03 1012.71 1012.40 1012.15 1011.98 1011.89 1011.90 1012.00 1012.20 1012.47 1012.79 1013.16 1013.55 1013.95 1014.37 1014.81 1015.26 1015.75 1016.26 1016.81 1017.40 1018.01 1018.64 1019.27 1019.90 1020.51 1021.07 1021.60
1013.28 1013.34 1013.42 1013.50 1013.57 1013.64 1013.69 1013.72 1013.73 1013.70 1013.65 1013.55 1013.41 1013.23 1013.01 1012.76 1012.50 1012.23 1011.98 1011.76 1011.61 1011.53 1011.52 1011.60 1011.76 1011.99 1012.28 1012.62 1012.99 1013.39 1013.83 1014.29 1014.80 1015.34 1015.92 1016.55 1017.20 1017.88 1018.56 1019.23 1019.88 1020.49 1021.05
1013.25 1013.27 1013.31 1013.35 1013.38 1013.39 1013.38 1013.34 1013.29 1013.22 1013.14 1013.05 1012.96 1012.84 1012.70 1012.53 1012.34 1012.11 1011.88 1011.65 1011.44 1011.27 1011.17 1011.13 1011.17 1011.30 1011.50 1011.77 1012.09 1012.47 1012.90 1013.38 1013.90 1014.47 1015.08 1015.73 1016.42 1017.12 1017.83 1018.52 1019.19 1019.82 1020.41
1013.32 1013.29 1013.29 1013.27 1013.24 1013.18 1013.10 1012.99 1012.88 1012.77 1012.67 1012.59 1012.52 1012.47 1012.40 1012.32 1012.20 1012.03 1011.82 1011.59 1011.34 1011.11 1010.91 1010.77 1010.70 1010.72 1010.83 1011.03 1011.30 1011.65 1012.07 1012.54 1013.08 1013.66 1014.28 1014.95 1015.64 1016.35 1017.06 1017.76 1018.43 1019.07 1019.66
1013.45 1013.37 1013.30 1013.22 1013.13 1013.00 1012.85 1012.68 1012.50 1012.35 1012.23 1012.15 1012.11 1012.11 1012.11 1012.10 1012.05 1011.94 1011.77 1011.54 1011.27 1010.99 1010.72 1010.49 1010.33 1010.26 1010.29 1010.42 1010.64 1010.95 1011.34 1011.80 1012.33 1012.91 1013.53 1014.18 1014.87 1015.56 1016.25 1016.93 1017.59 1018.22 1018.81
1013.57 1013.43 1013.30 1013.17 1013.01 1012.83 1012.61 1012.38 1012.16 1011.97 1011.83 1011.75 1011.73 1011.76 1011.82 1011.87 1011.87 1011.82 1011.68 1011.47 1011.19 1010.88 1010.56 1010.27 1010.04 1009.90 1009.86 1009.92 1010.09 1010.36 1010.72 1011.15 1011.65 1012.20 1012.80 1013.42 1014.07 1014.73 1015.39 1016.04 1016.68 1017.29 1017.87
1013.62 1013.44 1013.27 1013.09 1012.88 1012.65 1012.39 1012.11 1011.85 1011.63 1011.47 1011.39 1011.38 1011.43 1011.52 1011.60 1011.65 1011.64 1011.54 1011.35 1011.08 1010.76 1010.42 1010.10 1009.82 1009.63 1009.53 1009.55 1009.67 1009.89 1010.19 1010.58 1011.03 1011.53 1012.08 1012.65 1013.25 1013.86 1014.48 1015.11 1015.72 1016.32 1016.91
1013.59 1013.38 1013.18 1012.97 1012.73 1012.46 1012.17 1011.87 1011.58 1011.34 1011.16 1011.07 1011.06 1011.11 1011.21 1011.31 1011.38 1011.39 1011.32 1011.16 1010.91 1010.60 1010.27 1009.94 1009.65 1009.43 1009.30 1009.27 1009.34 1009.51 1009.75 1010.08 1010.46 1010.90 1011.38 1011.89 1012.43 1012.99 1013.58 1014.18 1014.78 1015.39 1015.99
1013.48 1013.26 1013.05 1012.82 1012.56 1012.28 1011.98 1011.66 1011.36 1011.10 1010.91 1010.79 1010.76 1010.80 1010.89 1010.99 1011.06 1011.09 1011.04 1010.90 1010.68 1010.41 1010.10 1009.79 1009.51 1009.29 1009.14 1009.08 1009.11 1009.21 1009.40 1009.65 1009.95 1010.31 1010.71 1011.15 1011.64 1012.16 1012.71 1013.30 1013.91 1014.53 1015.16
1013.33 1013.11 1012.89 1012.66 1012.40 1012.12 1011.81 1011.49 1011.18 1010.91 1010.70 1010.56 1010.49 1010.50 1010.55 1010.63 1010.70 1010.72 1010.69 1010.58 1010.40 1010.17 1009.91 1009.64 1009.39 1009.19 1009.04 1008.97 1008.96 1009.01 1009.13 1009.30 1009.52 1009.79 1010.12 1010.49 1010.92 1011.40 1011.94 1012.53 1013.16 1013.81 1014.48
1013.15 1012.93 1012.72 1012.50 1012.25 1011.97 1011.67 1011.35 1011.04 1010.75 1010.51 1010.34 1010.23 1010.20 1010.21 1010.25 1010.29 1010.31 1010.28 1010.21 1010.08 1009.90 1009.70 1009.49 1009.29 1009.12 1008.99 1008.91 1008.87 1008.89 1008.94 1009.04 1009.18 1009.37 1009.62 1009.93 1010.32 1010.77 1011.30 1011.90 1012.55 1013.24 1013.95
1012.96 1012.75 1012.55 1012.34 1012.10 1011.84 1011.54 1011.23 1010.91 1010.60 1010.34 1010.12 1009.97 1009.88 1009.84 1009.84 1009.85 1009.86 1009.84 1009.80 1009.72 1009.60 1009.47 1009.33 1009.19 1009.06 1008.96 1008.89 1008.84 1008.82 1008.82 1008.86 1008.93 1009.06 1009.25 1009.51 1009.86 1010.29 1010.82 1011.43 1012.11 1012.83 1013.56
1012.75 1012.55 1012.36 1012.16 1011.93 1011.68 1011.39 1011.08 1010.75 1010.43 1010.13 1009.88 1009.68 1009.53 1009.44 1009.40 1009.39 1009.38 1009.38 1009.37 1009.34 1009.28 1009.22 1009.15 1009.07 1009.00 1008.94 1008.88 1008.83 1008.79 1008.76 1008.76 1008.78 1008.86 1009.01 1009.23 1009.56 1009.98 1010.51 1011.13 1011.82 1012.55 1013.31
1012.50 1012.31 1012.12 1011.93 1011.72 1011.48 1011.20 1010.88 1010.55 1010.21 1009.88 1009.59 1009.34 1009.15 1009.02 1008.95 1008.91 1008.91 1008.92 1008.94 1008.96 1008.96 1008.96 1008.95 1008.94 1008.92 1008.89 1008.85 1008.82 1008.78 1008.74 1008.71 1008.72 1008.78 1008.90 1009.11 1009.42 1009.83 1010.36 1010.98 1011.67 1012.41 1013.16
1012.20 1012.01 1011.83 1011.65 1011.44 1011.21 1010.93 1010.62 1010.27 1009.91 1009.56 1009.24 1008.97 1008.75 1008.59 1008.50 1008.46 1008.46 1008.50 1008.55 1008.60 1008.66 1008.71 1008.75 1008.78 1008.80 1008.81 1008.80 1008.78 1008.75 1008.73 1008.71 1008.72 1008.78 1008.91 1009.12 1009.42 1009.84 1010.36 1010.97 1011.65 1012.37 1013.11
1011.84 1011.65 1011.48 1011.30 1011.11 1010.88 1010.60 1010.28 1009.93 1009.56 1009.20 1008.86 1008.57 1008.34 1008.18 1008.08 1008.05 1008.07 1008.13 1008.21 1008.30 1008.39 1008.48 1008.55 1008.61 1008.66 1008.69 1008.71 1008.71 1008.71 1008.72 1008.73 1008.77 1008.85 1009.00 1009.23 1009.55 1009.97 1010.48 1011.08 1011.74 1012.43 1013.12
1011.45 1011.26 1011.09 1010.92 1010.74 1010.51 1010.24 1009.92 1009.57 1009.20 1008.83 1008.49 1008.20 1007.97 1007.82 1007.74 1007.73 1007.77 1007.85 1007.96 1008.07 1008.18 1008.29 1008.37 1008.44 1008.50 1008.55 1008.59 1008.62 1008.65 1008.69 1008.75 1008.84 1008.97 1009.16 1009.42 1009.77 1010.19 1010.70 1011.27 1011.90 1012.55 1013.19
1011.07 1010.89 1010.73 1010.57 1010.39 1010.16 1009.89 1009.58 1009.23 1008.86 1008.49 1008.16 1007.88 1007.67 1007.54 1007.49 1007.50 1007.57 1007.68 1007.80 1007.93 1008.05 1008.15 1008.23 1008.30 1008.36 1008.40 1008.45 1008.51 1008.58 1008.66 1008.77 1008.92 1009.11 1009.35 1009.65 1010.02 1010.46 1010.95 1011.50 1012.09 1012.69 1013.29
1010.77 1010.59 1010.44 1010.29 1010.11 1009.89 1009.62 1009.31 1008.96 1008.59 1008.24 1007.92 1007.66 1007.47 1007.37 1007.34 1007.38 1007.47 1007.59 1007.73 1007.86 1007.97 1008.06 1008.13 1008.18 1008.23 1008.27 1008.33 1008.40 1008.50 1008.63 1008.80 1009.00 1009.25 1009.54 1009.88 1010.27 1010.71 1011.20 1011.72 1012.27 1012.82 1013.36
Thickness
5735 5734 5733 5731 5732 5732 5731 5729 5728 5727 5727 5726 5726 5727 5727 5729 5730 5732 5733 5730 5728 5727 5728 5728 5727 5727 5726 5726 5725 5724 5724 5723 5722 5721 5721 5721 5720 5719 5719 5718 5717 5717 5716
5730 5729 5727 5727 5727 5727 5726 5725 5724 5723 5723 5723 5724 5723 5724 5725 5726 5728 5729 5729 5727 5727 5727 5727 5728 5727 5726 5725 5725 5725 5724 5723 5722 5722 5721 5720 5720 5719 5719 5718 5717 5716 5715
5724 5723 5724 5724 5723 5723 5721 5720 5720 5720 5720 5721 5722 5722 5722 5722 5724 5726 5727 5727 5728 5727 5727 5727 5727 5727 5727 5726 5725 5725 5724 5723 5722 5722 5721 5720 5720 5719 5719 5718 5717 5716 5715
5720 5719 5720 5720 5719 5719 5719 5718 5717 5716 5717 5718 5719 5721 5721 5721 5723 5724 5725 5726 5726 5729 5728 5727 5727 5727 5727 5726 5725 5725 5724 5723 5723 5722 5721 5720 5720 5719 5719 5718 5717 5716 5715
5716 5716 5716 5716 5715 5716 5715 5714 5715 5712 5712 5713 5716 5718 5720 5720 5722 5723 5725 5726 5726 5726 5729 5729 5727 5727 5726 5726 5726 5725 5724 5723 5723 5722 5721 5720 5720 5719 5719 5718 5717 5717 5716
5712 5711 5711 5711 5710 5710 5709 5708 5708 5708 5708 5709 5712 5716 5717 5719 5720 5722 5723 5725 5727 5727 5728 5729 5728 5727 5726 5726 5726 5725 5724 5723 5723 5722 5721 5721 5720 5720 5719 5718 5718 5717 5716
5707 5706 5707 5705 5704 5704 5703 5704 5703 5703 5703 5704 5703 5706 5712 5717 5719 5720 5722 5724 5728 5728 5727 5727 5728 5728 5728 5726 5726 5726 5725 5724 5723 5722 5721 5721 5721 5720 5719 5719 5718 5717 5716
5699 5701 5699 5699 5699 5697 5696 5697 5695 5696 5698 5699 5698 5697 5700 5709 5714 5721 5722 5722 5724 5726 5726 5726 5726 5726 5727 5729 5729 5727 5725 5724 5723 5722 5722 5721 5721 5721 5720 5719 5719 5718 5717
5693 5691 5691 5691 5691 5691 5692 5689 5689 5689 5690 5693 5694 5692 5692 5698 5707 5714 5717 5719 5719 5721 5723 5725 5724 5725 5725 5726 5729 5727 5726 5725 5724 5723 5722 5722 5722 5721 5721 5720 5719 5718 5717
5685 5684 5683 5683 5682 5684 5683 5683 5685 5683 5681 5683 5686 5688 5690 5694 5692 5699 5707 5712 5713 5713 5716 5719 5723 5723 5723 5724 5726 5727 5726 5726 5725 5724 5723 5722 5722 5722 5721 5720 5719 5718 5718
5678 5677 5676 5675 5674 5675 5675 5673 5673 5674 5676 5677 5679 5681 5683 5684 5687 5687 5693 5700 5705 5709 5712 5714 5716 5719 5722 5722 5723 5725 5724 5724 5724 5724 5723 5723 5722 5722 5721 5720 5720 5719 5718
5672 5671 5668 5666 5665 5666 5666 5665 5665 5666 5667 5669 5670 5674 5675 5677 5680 5684 5685 5688 5693 5701 5706 5708 5711 5715 5717 5720 5721 5723 5722 5722 5722 5722 5723 5723 5722 5722 5722 5721 5720 5720 5719
5665 5662 5660 5657 5657 5657 5657 5657 5657 5659 5660 5659 5660 5664 5668 5672 5675 5677 5678 5682 5685 5692 5697 5701 5706 5709 5713 5715 5717 5718 5718 5719 5720 5721 5721 5722 5722 5722 5722 5722 5721 5720 5719
5655 5652 5649 5648 5648 5648 5649 5650 5651 5652 5652 5652 5653 5655 5658 5663 5667 5668 5670 5672 5675 5681 5688 5693 5700 5704 5707 5709 5712 5712 5715 5717 5718 5719 5720 5721 5721 5722 5722 5721 5721 5720 5720
5646 5644 5641 5639 5639 5639 5639 5639 5642 5642 5644 5644 5646 5648 5648 5654 5657 5660 5663 5665 5665 5668 5676 5684 5688 5695 5698 5701 5704 5707 5711 5714 5715 5716 5718 5719 5720 5720 5721 5721 5721 5720 5720
5635 5633 5632 5630 5630 5630 5630 5630 5632 5635 5635 5635 5636 5638 5639 5644 5647 5650 5654 5657 5660 5661 5665 5675 5678 5685 5689 5694 5697 5701 5706 5709 5711 5713 5715 5716 5717 5719 5719 5719 5720 5719 5719
5627 5625 5623 5622 5621 5621 5622 5622 5623 5624 5625 5626 5628 5630 5631 5632 5636 5640 5644 5647 5651 5654 5656 5664 5670 5675 5678 5683 5689 5694 5700 5704 5708 5709 5711 5713 5715 5716 5717 5718 5718 5718 5718
5620 5618 5616 5614 5613 5613 5613 5612 5612 5615 5615 5616 5618 5619 5621 5624 5626 5628 5633 5638 5642 5645 5648 5652 5659 5664 5669 5674 5680 5686 5693 5699 5703 5705 5707 5709 5711 5713 5714 5715 5715 5716 5716
5614 5611 5608 5606 5605 5604 5604 5604 5603 5604 5605 5606 5607 5609 5611 5613 5616 5620 5623 5628 5633 5637 5640 5644 5649 5654 5659 5665 5671 5677 5684 5690 5695 5698 5700 5702 5705 5707 5709 5710 5712 5713 5713
5607 5604 5602 5599 5597 5596 5595 5595 5594 5594 5594 5596 5597 5598 5601 5603 5605 5608 5612 5616 5621 5625 5630 5634 5640 5645 5650 5656 5661 5667 5672 5679 5685 5691 5692 5695 5697 5699 5702 5704 5706 5707 5709
5602 5599 5595 5593 5590 5589 5588 5586 5584 5585 5585 5586 5587 5588 5590 5592 5594 5596 5601 5607 5610 5614 5620 5626 5631 5636 5641 5647 5652 5658 5663 5668 5674 5680 5684 5686 5689 5691 5693 5695 5698 5701 5703
5597 5593 5589 5586 5584 5583 5578 5572 5568 5572 5574 5576 5577 5579 5581 5582 5583 5583 5586 5590 5595 5602 5610 5615 5622 5627 5632 5639 5645 5649 5655 5658 5662 5669 5674 5676 5682 5685 5687 5690 5691 5694 5696
5592 5588 5584 5581 5578 5575 5569 5563 5559 5559 5564 5567 5568 5569 5571 5578 5576 5578 5579 5580 5584 5589 5595 5603 5611 5618 5625 5630 5636 5641 5646 5651 5656 5661 5664 5665 5671 5675 5679 5681 5683 5685 5688
5588 5584 5579 5576 5573 5570 5563 5557 5553 5553 5558 5560 5560 5561 5561 5564 5566 5567 5570 5575 5580 5585 5589 5594 5603 5609 5614 5620 5626 5631 5637 5641 5646 5651 5656 5656 5659 5663 5667 5670 5673 5676 5679
5584 5580 5577 5573 5569 5565 5559 5552 5545 5551 5554 5554 5554 5554 5554 5555 5554 5554 5558 5564 5570 5576 5580 5585 5591 5597 5602 5608 5615 5621 5626 5630 5635 5640 5646 5649 5651 5653 5656 5660 5662 5666 5669
5580 5576 5573 5569 5565 5561 5555 5548 5541 5546 5548 5549 5548 5547 5544 5544 5543 5543 5548 5554 5560 5567 5573 5578 5581 5586 5593 5599 5604 5612 5620 5623 5628 5631 5636 5640 5643 5647 5647 5650 5653 5656 5660